EW9634 Weather Reports


Display with metric or nautical units.
time (UTC)temp
F
wind
direction
speed
MPH
gust
MPH
rain 1hr
in
rain 24hr
in
rain mn
in
humidity
%
barometer
mb
20260502222305 62 0.0 1.0 0.00 0.00 0.00 36 1016.3
20260502221303 62 293 8.0 10.0 0.00 0.00 0.00 38 1016.3
20260502220303 62 293 1.0 2.0 0.00 0.00 0.00 39 1016.4
20260502215305 62 338 1.0 3.0 0.00 0.00 0.00 34 1016.6
20260502214304 62 293 4.0 5.0 0.00 0.00 0.00 40 1016.7
20260502213303 62 270 3.0 5.0 0.00 0.00 0.00 36 1016.8
20260502212304 62 248 3.0 3.0 0.00 0.00 0.00 37 1016.8
20260502211302 62 270 4.0 8.0 0.00 0.00 0.00 39 1016.9
20260502210323 62 338 5.0 6.0 0.00 0.00 0.00 42 1017.0
20260502205322 61 270 5.0 7.0 0.00 0.00 0.00 42 1017.0
20260502204302 62 270 3.0 6.0 0.00 0.00 0.00 41 1017.1
20260502203307 61 68 2.0 2.0 0.00 0.00 0.00 44 1017.3
20260502202304 61 270 2.0 3.0 0.00 0.00 0.00 38 1017.4
20260502201322 61 338 4.0 5.0 0.00 0.00 0.00 39 1017.4
20260502200323 61 0 5.0 8.0 0.00 0.00 0.00 43 1017.6
20260502195304 61 0 5.0 9.0 0.00 0.00 0.00 45 1017.7
20260502194302 60 315 8.0 12.0 0.00 0.00 0.00 40 1017.8
20260502193324 61 315 13.0 15.0 0.00 0.00 0.00 40 1017.9
20260502192305 60 0 5.0 10.0 0.00 0.00 0.00 45 1017.9
20260502191322 60 0 1.0 3.0 0.00 0.00 0.00 42 1018.1
20260502190302 61 270 8.0 9.0 0.00 0.00 0.00 42 1018.3
20260502185305 60 338 4.0 8.0 0.00 0.00 0.00 40 1018.4
20260502184322 59 293 4.0 7.0 0.00 0.00 0.00 38 1018.4
20260502183303 60 270 6.0 9.0 0.00 0.00 0.00 40 1018.7
20260502182343 60 338 10.0 13.0 0.00 0.00 0.00 39 1018.7
20260502181324 58 203 1.0 2.0 0.00 0.00 0.00 40 1018.7
20260502180323 59 338 11.0 14.0 0.00 0.00 0.00 42 1019.0
20260502170302 57 338 5.0 8.0 0.00 0.00 0.00 47 1019.3
20260502164302 57 23 2.0 4.0 0.00 0.00 0.00 47 1019.2
20260502163302 56 0.0 2.0 0.00 0.00 0.00 50 1019.3
20260502162304 57 0 8.0 10.0 0.00 0.00 0.00 48 1019.4
20260502161303 56 0 5.0 6.0 0.00 0.00 0.00 47 1019.4
20260502160302 55 248 7.0 9.0 0.00 0.00 0.00 50 1019.4
20260502151343 54 0 6.0 8.0 0.00 0.00 0.00 56 1019.3
20260502150302 54 338 9.0 12.0 0.00 0.00 0.00 59 1019.2
20260502130302 46 338 4.0 5.0 0.00 0.00 0.00 68 1018.7
20260502123330 43 315 4.0 5.0 0.00 0.00 0.00 73 1018.4
20260502122306 42 315 3.0 4.0 0.00 0.00 0.00 74 1018.2
20260502121303 41 315 4.0 5.0 0.00 0.00 0.00 75 1018.1
20260502120303 41 315 5.0 6.0 0.00 0.00 0.00 76 1018.1
20260502115306 40 315 5.0 7.0 0.00 0.00 0.00 76 1017.9
20260502114305 40 315 3.0 4.0 0.00 0.00 0.00 75 1017.7
20260502113303 40 315 2.0 3.0 0.00 0.00 0.00 75 1017.5
20260502112323 40 315 3.0 4.0 0.00 0.00 0.00 75 1017.5
20260502111304 40 315 4.0 5.0 0.00 0.00 0.00 75 1017.5
20260502110303 40 315 4.0 5.0 0.00 0.00 0.00 74 1017.5
20260502105306 40 315 5.0 6.0 0.00 0.00 0.00 74 1017.5
20260502104324 40 315 5.0 5.0 0.00 0.00 0.00 73 1017.5
20260502103303 41 338 3.0 3.0 0.00 0.00 0.00 72 1017.3
20260502102306 41 315 3.0 4.0 0.00 0.00 0.00 72 1017.2
20260502101308 41 315 4.0 5.0 0.00 0.00 0.00 71 1017.1
20260502100303 41 315 4.0 5.0 0.00 0.00 0.00 71 1017.1
20260502091303 42 338 5.0 5.0 0.00 0.00 0.00 70 1016.8
20260502090303 42 338 4.0 5.0 0.00 0.00 0.00 70 1016.7
20260502071304 45 315 4.0 5.0 0.00 0.00 0.00 61 1016.7
20260502070302 46 315 4.0 7.0 0.00 0.00 0.00 60 1016.7
20260502065323 46 315 4.0 5.0 0.00 0.00 0.00 59 1016.8
20260502064303 47 338 4.0 5.0 0.00 0.00 0.00 58 1016.8
20260502063302 48 338 3.0 4.0 0.00 0.00 0.00 56 1016.8
20260502062306 48 0 1.0 2.0 0.00 0.00 0.00 54 1016.9
20260502061323 49 338 2.0 3.0 0.00 0.00 0.00 54 1017.0
20260502060303 49 0 2.0 3.0 0.00 0.00 0.00 54 1017.0
20260502055305 50 0 3.0 5.0 0.00 0.00 0.00 53 1016.9
20260502054303 50 23 4.0 6.0 0.00 0.00 0.00 53 1017.0
20260502053303 50 0 4.0 8.0 0.00 0.00 0.00 55 1016.8
20260502052305 50 0 3.0 5.0 0.00 0.00 0.00 54 1016.9
20260502051304 51 0 5.0 10.0 0.00 0.00 0.00 53 1016.8
20260502050302 51 0 8.0 12.0 0.00 0.00 0.00 54 1016.8
20260502045308 51 0 5.0 8.0 0.00 0.00 0.00 55 1016.7
20260502044303 51 0 4.0 6.0 0.00 0.00 0.00 56 1016.6
20260502043303 51 338 5.0 5.0 0.00 0.00 0.00 57 1016.6
20260502042306 51 338 4.0 6.0 0.00 0.00 0.00 57 1016.5
20260502041304 51 338 4.0 5.0 0.00 0.00 0.00 57 1016.5
20260502040303 52 338 3.0 5.0 0.00 0.00 0.00 55 1016.5
20260502035308 53 0 3.0 5.0 0.00 0.00 0.00 54 1016.3
20260502034304 53 0 4.0 6.0 0.00 0.00 0.00 56 1016.3
20260502033304 52 338 4.0 6.0 0.00 0.00 0.00 59 1016.3
20260502032306 52 338 3.0 4.0 0.00 0.00 0.00 58 1016.1
20260502031303 53 338 3.0 5.0 0.00 0.00 0.00 58 1016.1
20260502030308 53 0 1.0 2.0 0.00 0.00 0.00 57 1015.9
20260502025306 53 0 1.0 2.0 0.00 0.00 0.00 57 1015.6
20260502024304 54 0.0 0.0 0.00 0.00 0.00 55 1015.5
20260502023328 54 0 1.0 1.0 0.00 0.00 0.00 55 1015.4
20260502022306 54 0 2.0 3.0 0.00 0.00 0.00 54 1015.2
20260502021303 55 338 2.0 3.0 0.00 0.00 0.00 53 1015.0
20260502020303 55 338 2.0 3.0 0.00 0.00 0.00 52 1014.9
20260502015323 56 0 2.0 2.0 0.00 0.00 0.00 50 1014.8
20260502014303 57 0 4.0 6.0 0.00 0.00 0.00 49 1014.6
20260502013303 57 338 5.0 6.0 0.00 0.00 0.00 49 1014.5
20260502012323 58 338 4.0 4.0 0.00 0.00 0.00 48 1014.3
20260502011304 58 338 4.0 5.0 0.00 0.00 0.00 47 1014.1
20260502010302 59 338 7.0 10.0 0.00 0.00 0.00 46 1014.0
20260502005323 59 338 6.0 8.0 0.00 0.00 0.00 45 1013.7
20260502004303 60 338 7.0 10.0 0.00 0.00 0.00 44 1013.5
20260502003303 61 338 6.0 8.0 0.00 0.00 0.00 43 1013.4
20260502002305 61 338 6.0 10.0 0.00 0.00 0.00 43 1013.3
20260502001303 62 338 5.0 6.0 0.00 0.00 0.00 41 1013.3
20260502000303 63 338 12.0 14.0 0.00 0.00 0.00 42 1013.2
20260501235305 62 315 10.0 12.0 0.00 0.00 0.00 41 1013.2
20260501234323 63 338 11.0 13.0 0.00 0.00 0.00 40 1013.2
20260501233304 63 315 8.0 10.0 0.00 0.00 0.00 41 1013.2
20260501232305 64 338 7.0 10.0 0.00 0.00 0.00 41 1013.2
20260501231302 63 338 10.0 12.0 0.00 0.00 0.00 40 1013.2
20260501230303 64 338 9.0 11.0 0.00 0.00 0.00 39 1013.2
20260501225305 64 293 9.0 12.0 0.00 0.00 0.00 39 1013.3
20260501224302 64 0 9.0 12.0 0.00 0.00 0.00 41 1013.3
20260501223302 64 293 10.0 11.0 0.00 0.00 0.00 39 1013.3